Tiempo cada hora Aarle

Hoy, 29 Octubre, Jueves

Tiempo Temperatura Precipitaciones Viento Presión Humedad
00:00 +9°C° 0 mm 5 mps 753 mmHg 83%
01:00 +8°C° 0.1 mm 5 mps 754 mmHg 83%
02:00 +8°C° 0.1 mm 5 mps 755 mmHg 84%
03:00 +7°C° 0.1 mm 5 mps 755 mmHg 84%
04:00 +7°C° 0 mm 5 mps 756 mmHg 84%
05:00 +7°C° 0 mm 5 mps 757 mmHg 85%
06:00 +7°C° 0 mm 4 mps 757 mmHg 86%
07:00 +8°C° 0 mm 5 mps 758 mmHg 83%
08:00 +9°C° 0 mm 5 mps 758 mmHg 80%
09:00 +9°C° 0 mm 6 mps 759 mmHg 76%
10:00 +10°C° 0 mm 6 mps 759 mmHg 75%
11:00 +11°C° 0 mm 6 mps 760 mmHg 74%
12:00 +11°C° 0 mm 6 mps 760 mmHg 73%
13:00 +11°C° 0.4 mm 6 mps 760 mmHg 79%
14:00 +10°C° 0.4 mm 5 mps 760 mmHg 85%
15:00 +10°C° 0.4 mm 5 mps 760 mmHg 91%
16:00 +10°C° 0.3 mm 6 mps 760 mmHg 91%
17:00 +10°C° 0.3 mm 6 mps 760 mmHg 90%
18:00 +10°C° 0.3 mm 7 mps 760 mmHg 90%
19:00 +11°C° 0.2 mm 7 mps 760 mmHg 89%
20:00 +11°C° 0.2 mm 7 mps 760 mmHg 89%
21:00 +12°C° 0.2 mm 7 mps 760 mmHg 88%
22:00 +12°C° 0 mm 7 mps 760 mmHg 88%
23:00 +12°C° 0 mm 7 mps 760 mmHg 88%

Mañana, 30 Octubre, Viernes

Tiempo Temperatura Precipitaciones Viento Presión Humedad
00:00 +12°C° 0 mm 7 mps 760 mmHg 87%
01:00 +12°C° 0 mm 7 mps 760 mmHg 87%
02:00 +12°C° 0 mm 7 mps 760 mmHg 87%
03:00 +12°C° 0 mm 7 mps 760 mmHg 87%
04:00 +12°C° 0 mm 7 mps 761 mmHg 87%
05:00 +12°C° 0 mm 7 mps 761 mmHg 86%
06:00 +12°C° 0 mm 7 mps 761 mmHg 86%
07:00 +12°C° 0 mm 7 mps 762 mmHg 85%
08:00 +14°C° 0 mm 7 mps 762 mmHg 84%
09:00 +14°C° 0 mm 7 mps 762 mmHg 83%
10:00 +14°C° 0 mm 7 mps 762 mmHg 82%
11:00 +15°C° 0 mm 7 mps 762 mmHg 80%
12:00 +15°C° 0 mm 7 mps 762 mmHg 79%
13:00 +15°C° 0 mm 6 mps 763 mmHg 79%
14:00 +15°C° 0 mm 6 mps 763 mmHg 80%
15:00 +15°C° 0 mm 5 mps 763 mmHg 80%
16:00 +14°C° 0 mm 5 mps 763 mmHg 81%
17:00 +14°C° 0 mm 4 mps 764 mmHg 82%
18:00 +14°C° 0 mm 4 mps 764 mmHg 82%
19:00 +13°C° 0 mm 4 mps 764 mmHg 85%
20:00 +13°C° 0 mm 4 mps 764 mmHg 87%
21:00 +12°C° 0 mm 4 mps 765 mmHg 89%
22:00 +12°C° 0 mm 4 mps 765 mmHg 90%
23:00 +11°C° 0 mm 3 mps 764 mmHg 91%

Pasado mañana, 31 Octubre, Sábado

Tiempo Temperatura Precipitaciones Viento Presión Humedad
00:00 +11°C° 0 mm 3 mps 764 mmHg 92%
01:00 +10°C° 0 mm 3 mps 764 mmHg 92%
02:00 +10°C° 0 mm 3 mps 764 mmHg 91%
03:00 +10°C° 0 mm 4 mps 764 mmHg 90%
04:00 +10°C° 0 mm 3 mps 764 mmHg 90%
05:00 +10°C° 0 mm 3 mps 763 mmHg 91%
06:00 +9°C° 0 mm 3 mps 763 mmHg 91%
07:00 +10°C° 0 mm 4 mps 763 mmHg 87%
08:00 +12°C° 0 mm 5 mps 763 mmHg 83%
09:00 +13°C° 0 mm 5 mps 762 mmHg 80%
10:00 +14°C° 0 mm 5 mps 762 mmHg 76%
11:00 +15°C° 0 mm 5 mps 762 mmHg 73%
12:00 +16°C° 0 mm 5 mps 761 mmHg 70%
13:00 +16°C° 0 mm 5 mps 761 mmHg 71%
14:00 +15°C° 0 mm 5 mps 760 mmHg 72%
15:00 +15°C° 0 mm 4 mps 760 mmHg 73%
16:00 +15°C° 0 mm 4 mps 760 mmHg 74%
17:00 +14°C° 0 mm 5 mps 760 mmHg 76%
18:00 +13°C° 0 mm 5 mps 760 mmHg 77%
19:00 +13°C° 0 mm 5 mps 759 mmHg 77%
20:00 +13°C° 0 mm 5 mps 759 mmHg 77%
21:00 +13°C° 0 mm 5 mps 759 mmHg 77%
22:00 +13°C° 0 mm 5 mps 759 mmHg 79%
23:00 +13°C° 0 mm 5 mps 758 mmHg 80%

1 Noviembre, Domingo

Tiempo Temperatura Precipitaciones Viento Presión Humedad
00:00 +13°C° 0 mm 5 mps 758 mmHg 82%
01:00 +14°C° 0 mm 6 mps 757 mmHg 82%
02:00 +14°C° 0 mm 6 mps 757 mmHg 82%
03:00 +14°C° 0 mm 6 mps 756 mmHg 82%
04:00 +14°C° 0 mm 7 mps 756 mmHg 80%
05:00 +15°C° 0 mm 7 mps 755 mmHg 79%
06:00 +15°C° 0 mm 8 mps 755 mmHg 77%
07:00 +15°C° 0.4 mm 8 mps 755 mmHg 78%
08:00 +15°C° 0.4 mm 9 mps 755 mmHg 79%
09:00 +15°C° 0.4 mm 9 mps 754 mmHg 81%
10:00 +15°C° 0.2 mm 9 mps 754 mmHg 80%
11:00 +15°C° 0.2 mm 9 mps 754 mmHg 79%
12:00 +15°C° 0.2 mm 9 mps 753 mmHg 78%
13:00 +15°C° 0 mm 9 mps 754 mmHg 78%
14:00 +16°C° 0 mm 9 mps 754 mmHg 78%
15:00 +16°C° 0 mm 8 mps 754 mmHg 79%
16:00 +16°C° 0.1 mm 7 mps 754 mmHg 81%
17:00 +16°C° 0.1 mm 6 mps 754 mmHg 84%
18:00 +16°C° 0.1 mm 5 mps 754 mmHg 86%
19:00 +16°C° 0.3 mm 7 mps 754 mmHg 87%
20:00 +16°C° 0.3 mm 8 mps 753 mmHg 88%
21:00 +16°C° 0.3 mm 9 mps 753 mmHg 88%
22:00 +17°C° 0.5 mm 9 mps 753 mmHg 88%
23:00 +17°C° 0.5 mm 10 mps 752 mmHg 87%

2 Noviembre, Lunes

Tiempo Temperatura Precipitaciones Viento Presión Humedad
00:00 +17°C° 0.5 mm 10 mps 752 mmHg 87%
01:00 +17°C° 0 mm 9 mps 752 mmHg 86%
02:00 +17°C° 0 mm 9 mps 752 mmHg 84%
03:00 +18°C° 0 mm 9 mps 752 mmHg 83%
04:00 +17°C° 0 mm 9 mps 752 mmHg 82%
05:00 +17°C° 0 mm 9 mps 752 mmHg 81%
06:00 +17°C° 0 mm 9 mps 752 mmHg 80%
07:00 +18°C° 0 mm 9 mps 752 mmHg 79%
08:00 +18°C° 0 mm 9 mps 752 mmHg 77%
09:00 +18°C° 0 mm 9 mps 752 mmHg 76%
10:00 +18°C° 0 mm 9 mps 752 mmHg 74%
11:00 +19°C° 0 mm 9 mps 752 mmHg 72%
12:00 +19°C° 0 mm 9 mps 752 mmHg 70%
13:00 +17°C° 0.3 mm 9 mps 753 mmHg 74%
14:00 +16°C° 0.3 mm 8 mps 753 mmHg 79%
15:00 +14°C° 0.3 mm 7 mps 753 mmHg 84%
16:00 +12°C° 0.4 mm 7 mps 754 mmHg 84%
17:00 +11°C° 0.4 mm 6 mps 755 mmHg 84%
18:00 +10°C° 0.4 mm 5 mps 756 mmHg 84%
19:00 +10°C° 0.4 mm 5 mps 757 mmHg 83%
20:00 +11°C° 0.4 mm 4 mps 758 mmHg 83%
21:00 +10°C° 0.4 mm 4 mps 758 mmHg 83%
22:00 +10°C° 0.1 mm 3 mps 759 mmHg 83%
23:00 +10°C° 0.1 mm 3 mps 759 mmHg 82%

3 Noviembre, Martes

Tiempo Temperatura Precipitaciones Viento Presión Humedad
00:00 +9°C° 0.1 mm 2 mps 759 mmHg 82%
01:00 +9°C° 0 mm 2 mps 759 mmHg 82%
02:00 +9°C° 0 mm 2 mps 759 mmHg 83%
03:00 +9°C° 0 mm 2 mps 759 mmHg 83%
04:00 +9°C° 0 mm 3 mps 759 mmHg 85%
05:00 +9°C° 0 mm 3 mps 759 mmHg 88%
06:00 +8°C° 0 mm 3 mps 759 mmHg 90%
07:00 +8°C° 0 mm 4 mps 760 mmHg 85%
08:00 +9°C° 0 mm 5 mps 760 mmHg 81%
09:00 +10°C° 0 mm 6 mps 760 mmHg 76%
10:00 +10°C° 0 mm 6 mps 761 mmHg 72%
11:00 +11°C° 0 mm 6 mps 761 mmHg 69%
12:00 +11°C° 0 mm 7 mps 762 mmHg 65%
13:00 +11°C° 0 mm 6 mps 762 mmHg 66%
14:00 +10°C° 0 mm 5 mps 762 mmHg 67%
15:00 +10°C° 0 mm 5 mps 762 mmHg 68%
16:00 +10°C° 0 mm 5 mps 763 mmHg 70%
17:00 +9°C° 0 mm 5 mps 763 mmHg 71%
18:00 +8°C° 0 mm 5 mps 764 mmHg 73%
19:00 +8°C° 0 mm 5 mps 764 mmHg 76%
20:00 +8°C° 0 mm 5 mps 765 mmHg 79%
21:00 +7°C° 0 mm 4 mps 765 mmHg 82%
22:00 +7°C° 0 mm 4 mps 766 mmHg 85%
23:00 +7°C° 0 mm 3 mps 766 mmHg 89%
Mostrar más

Necesitamos Su Consentimiento

Meteoprog y nuestros Proveedores de Servicios pueden almacenar y acceder a sus datos personales como cookies, identificadores de dispositivo u otras tecnologías similares de su dispositivo y procesar dichos datos para personalizar contenido y anuncios, además de ofrecer funciones de redes sociales y analizar el tráfico.

  • Almacenar y/o acceder a información en su dispositivo

    Se puede almacenar o acceder a cookies, identificadores de dispositivo u otra información de su dispositivo para los fines anteriormente indicados.

  • Anuncios y contenido personalizados, medición de anuncios y contenido, percepciones del público, y desarrollo de productos

    Los anuncios y el contenido pueden personalizarse en base a su perfil. Se pueden añadir más datos para personalizar mejor los anuncios y contenidos. Se puede medir el rendimiento de los anuncios y contenidos. Se puede obtener la percepción sobre el público que ha visto los anuncios y contenidos. Dichos datos pueden usarse para desarrollar o mejorar la experiencia del usuario, sistemas y software.

Al hacer clic en ‘Estoy De Acuerdo’ usted permitirá el uso de las cookies, identificadores de dispositivo, balizas web u otras tecnologías similares indicadas. Su configuración puede cambiarse desde el navegador de su dispositivo.

Para ciertos fines, los intereses legítimos pueden ser considerados por encima del consentimiento. Puede leer más sobre ello en nuestra Política de Privacidad y Cookies.